Flag for Turkey Weather past 2 weeks in Gaziantep, Turkey

Now
54 °F

Scattered clouds.


Feels Like: 49 °F
Forecast: 44 / 58 °F
Wind: 15 mph from Southwest

Location: Gaziantep Airport

Current Time: Mar 30, 2015 at 9:54:36 AM

Latest Report: Mar 30, 2015 at 9:20 AM


Visibility: N/A

Pressure: 29.80 "Hg

Humidity: 77%

Dew point: 46 °F

Location of GaziantepLocation

Historic Weather in Gaziantep — Graph

°F

Gaziantep temperature yesterday

Maximum temperature yesterday: 57 °F (at 11:50 AM)
Minimum temperature yesterday: 50 °F (at 2:50 AM)
Average temperature yesterday: 53 °F

Past Weeks' High & Low Weather Summary

 TemperatureHumidityPressure
High64 °F (Mar 26, 12:50 PM)100% (Mar 21, 2:50 AM)30.18 "Hg (Mar 21, 2:50 AM)
Low32 °F (Mar 23, 4:50 AM)29% (Mar 17, 3:20 PM)29.71 "Hg (Mar 21, 6:20 PM)
Average49 °F70%29.99 "Hg
* Reported Mar 15 7:20 AM — Mar 30 8:50 AM, Gaziantep, Weather by CustomWeather, © 2015

Note: Actual official high and low records may vary slightly from our data, if they occured in-between our weather recording intervals... More about our weather records

Advertising

Gaziantep weather history for previous 24 hours

 ConditionsComfort  
Time TempWeatherWind HumidityBarometerVisibility
8:50 AM
Mon, Mar 30
52 °FScattered clouds.13 mph82%29.80 "HgN/A
8:20 AM50 °FScattered clouds.5 mph88%29.80 "HgN/A
7:50 AM48 °FBroken clouds.No wind87%29.80 "HgN/A
7:20 AM48 °FBroken clouds.No wind87%29.80 "HgN/A
6:50 AM48 °FPartly cloudy.No wind82%29.80 "HgN/A
6:20 AM48 °FPartly cloudy.No wind87%29.80 "HgN/A
5:50 AM46 °FPartly cloudy.No wind87%29.80 "HgN/A
5:20 AM48 °FPartly cloudy.No wind87%29.80 "HgN/A
4:50 AM48 °FPartly cloudy.No wind87%29.80 "HgN/A
4:20 AM48 °FPartly cloudy.No wind94%29.77 "HgN/A
3:50 AM48 °FPartly cloudy.No wind94%29.80 "HgN/A
3:20 AM48 °FPartly cloudy.No wind94%29.80 "HgN/A
2:50 AM50 °FPartly cloudy.No wind88%29.80 "HgN/A
2:20 AM48 °FPartly cloudy.No wind94%29.80 "HgN/A
1:50 AM48 °FPartly cloudy.No wind87%29.80 "HgN/A
1:20 AM48 °FPartly cloudy.No wind87%29.80 "Hg5 mi
12:50 AM46 °FPartly cloudy.No wind93%29.80 "Hg5 mi
12:20 AM50 °FPartly cloudy.No wind88%29.83 "Hg5 mi
11:50 PM
Sun, Mar 29
50 °FPartly cloudy.No wind88%29.83 "Hg5 mi
11:20 PM50 °FPartly cloudy.2 mph88%29.83 "Hg5 mi
10:50 PM50 °FPartly cloudy.No wind88%29.83 "Hg5 mi
10:20 PM50 °FPartly cloudy.No wind88%29.80 "Hg5 mi
9:50 PM52 °FPartly cloudy.No wind82%29.80 "Hg4 mi
9:20 PM52 °FPartly cloudy.No wind82%29.80 "Hg4 mi
8:50 PM52 °FPartly cloudy.5 mph82%29.80 "Hg5 mi
8:20 PM52 °FPartly cloudy.6 mph82%29.77 "Hg4 mi
7:50 PM50 °FThunderstorms. Partly cloudy.14 mph88%29.77 "Hg4 mi
7:20 PM50 °FThunderstorms. Broken clouds.23 mph88%29.83 "Hg2 mi
6:50 PM54 °FLight rain. Fog.6 mph94%29.77 "Hg2 mi
6:20 PM54 °FLight rain. Fog.12 mph94%29.77 "Hg2 mi
5:50 PM54 °FLight rain. Fog.12 mph94%29.80 "Hg2 mi
5:20 PM54 °FLight rain. Fog.8 mph94%29.80 "Hg3 mi
4:50 PM54 °FLight rain. Fog.10 mph94%29.80 "Hg1 mi
4:20 PM54 °FLight rain. Fog.2 mph94%29.80 "Hg1 mi
3:50 PM54 °FLight rain. Fog.12 mph94%29.83 "Hg1 mi
3:20 PM54 °FLight rain. Fog.12 mph94%29.83 "Hg1 mi
2:50 PM54 °FLight rain. Fog.10 mph94%29.86 "Hg1 mi
2:20 PM54 °FLight rain. Fog.12 mph94%29.86 "Hg2 mi
1:50 PM55 °FLight rain. Fog.9 mph88%29.89 "Hg2 mi
1:20 PM55 °FCloudy.13 mph88%29.89 "HgN/A
12:50 PM55 °FBroken clouds.14 mph88%29.89 "HgN/A
12:20 PM57 °FBroken clouds.15 mph77%29.89 "HgN/A
11:50 AM57 °FBroken clouds.13 mph77%29.92 "HgN/A
11:20 AM55 °FBroken clouds.15 mph82%29.92 "HgN/A
10:50 AM55 °FBroken clouds.13 mph77%29.95 "HgN/A
10:20 AM55 °FBroken clouds.18 mph77%29.92 "HgN/A
9:50 AM55 °FBroken clouds.15 mph77%29.92 "HgN/A
9:20 AM55 °FBroken clouds.10 mph77%29.92 "HgN/A
Weather by CustomWeather, © 2015

See weather overviewHow to use our weather pages